Tracking 31027 objects as of 19-Jul-2025
HD Live streaming from Space Station
objects crossing your sky now

COSMOS 1974

Track COSMOS 1974 now!
COSMOS 1974 is classified as:


NORAD ID: 19554
Int'l Code: 1988-092A
Perigee: 8,637.5 km
Apogee: 31,761.2 km
Inclination: 70.0 °
Period: 718.4 minutes
Semi major axis: 26570 km
RCS: 16.1296 m2 (large)
Launch date: October 3, 1988
Source: Commonwealth of Independent States (former USSR) (CIS)
Launch site: PLESETSK MISSILE AND SPACE COMPLEX (PKMTR)
Your satellite tracking list
FLOCK 4V 13
Track 1 satellite(s)




NASA's NSSDC Master Catalog

Two Line Element Set (TLE):
1 19554U 88092A   25199.57014628  .00000198  00000-0  00000-0 0  9998
2 19554  69.9822 196.8466 4351404  73.0007 330.7932  2.00449926269448
Source of the keplerian elements: AFSPC